Waarnemingen

Advertentie
Mijn weer
Vichy, Frankrijk (7374): temperatuur & dauwpunt: 10.12.2017 00:00:00 - 16.12.2017 00:00:00 (CET)Vichy, Frankrijk (7374): temperatuur 5cm: 10.12.2017 00:00:00 - 16.12.2017 00:00:00 (CET)Vichy, Frankrijk (7374): windsnelheid & windstoten: 10.12.2017 00:00:00 - 16.12.2017 00:00:00 (CET)Vichy, Frankrijk (7374): windrichting: 10.12.2017 00:00:00 - 16.12.2017 00:00:00 (CET)Vichy, Frankrijk (7374): luchtdruk: 10.12.2017 00:00:00 - 16.12.2017 00:00:00 (CET)Vichy, Frankrijk (7374): zicht: 10.12.2017 00:00:00 - 16.12.2017 00:00:00 (CET)Vichy, Frankrijk (7374): Zonneschijnduur: 10.12.2017 00:00:00 - 16.12.2017 00:00:00 (CET)Vichy, Frankrijk (7374): neerslag: 10.12.2017 00:00:00 - 16.12.2017 00:00:00 (CET)
Datum & Tijd tt [°C] td [°C] tt 5cm [°C] ff [km/u] ff [kn] fx [km/u] fx [kn] dd ppp [hPa] vv [km] sd [min] rr [mm]
16.12.2017 00:00:00 3,1 1,6 2,1 10 5 29 16 WNW 1007,9 16 0 0,0
15.12.2017 23:00:00 2,8 1,5 1,9 12 7 32 17 WNW 1007,0 17 0 0,0
15.12.2017 22:00:00 2,6 1,3 2,0 13 7 48 26 WNW 1006,4 18 0 0,4
15.12.2017 21:00:00 3,4 1,6 2,6 16 9 42 23 WNW 1005,3 16 0 1,2
15.12.2017 20:00:00 4,7 2,1 1,5 11 6 25 14 ZW 1004,1 18 0 0,2
15.12.2017 19:00:00 4,4 2,4 3,3 5 3 21 12 ZZW 1003,4 20 0 0,6
15.12.2017 18:00:00 5,2 2,0 1,0 8 4 16 8 ZZW 1002,8 20 0 0,0
15.12.2017 17:00:00 4,9 1,7 2,0 8 5 17 9 ZZO 1002,1 20 0 0,0
15.12.2017 16:00:00 6,3 2,0 4,6 10 5 29 16 ZZW 1001,8 20 0 0,0
15.12.2017 15:00:00 6,2 2,8 5,1 10 6 35 19 ZZW 1002,4 20 2 0,6
15.12.2017 14:00:00 7,3 2,2 6,6 11 6 31 17 ZW 1002,7 19 18 0,0
15.12.2017 13:00:00 7,6 1,6 7,3 15 8 33 18 ZZW 1003,4 20 1 0,0
15.12.2017 12:00:00 7,1 2,0 5,4 14 8 29 15 Z 1004,1 20 0 0,0
15.12.2017 11:00:00 5,5 2,3 4,5 10 6 22 12 Z 1004,7 20 10 0,0
15.12.2017 10:00:00 4,6 1,8 3,0 10 5 18 10 Z 1004,6 20 10 0,0
15.12.2017 09:00:00 3,9 1,4 2,3 7 4 17 9 Z 1004,5 20 0 0,0
15.12.2017 08:00:00 3,3 1,3 0,7 8 4 16 9 Z 1004,2 20 0 0,0
15.12.2017 07:00:00 4,1 1,1 1,6 9 5 25 13 ZZO 1003,5 20 0 0,0
15.12.2017 06:00:00 5,5 1,4 3,1 11 6 24 13 Z 1003,4 20 0 0,0
15.12.2017 05:00:00 5,1 1,8 3,5 9 5 22 12 Z 1003,1 20 0 0,0
15.12.2017 04:00:00 4,9 1,9 2,1 15 8 26 14 Z 1003,9 20 0 0,0
15.12.2017 03:00:00 3,8 1,8 2,2 11 6 20 11 Z 1003,0 20 0 0,0
15.12.2017 02:00:00 3,9 2,1 2,8 6 3 21 11 Z 1003,5 20 0 0,0
15.12.2017 01:00:00 4,4 1,9 2,7 11 6 30 16 Z 1002,9 20 0 0,2
15.12.2017 00:00:00 3,5 1,9 2,1 10 6 28 15 WZW 1003,6 20 0 0,4
14.12.2017 23:00:00 2,9 1,6 2,2 10 5 54 29 WNW 1003,6 12 0 5,9
14.12.2017 22:00:00 8,2 4,6 5,4 11 6 31 17 ZW 1001,4 20 0 0,0
14.12.2017 21:00:00 7,3 4,3 4,9 9 5 40 21 Z 1001,1 20 0 0,4
14.12.2017 20:00:00 8,7 3,7 6,1 13 7 54 29 ZZW 1001,8 20 0 0,2
14.12.2017 19:00:00 8,3 5,8 6,4 5 3 23 12 WNW 1002,4 20 0 0,0
14.12.2017 18:00:00 8,6 6,4 7,5 9 5 37 20 WNW 1002,9 14 0 0,6
14.12.2017 17:00:00 10,9 4,8 9,2 15 8 53 28 ZZW 1002,6 20 7 0,0
14.12.2017 16:00:00 11,6 4,6 11,2 18 10 48 26 ZW 1003,0 20 40 0,0
14.12.2017 15:00:00 11,5 6,0 9,5 12 6 28 15 ZW 1004,2 20 28 0,0
14.12.2017 14:00:00 10,7 5,9 10,4 12 7 37 20 WZW 1005,7 20 0 0,0
14.12.2017 13:00:00 10,3 6,1 9,5 8 5 23 13 ZZW 1007,1 20 0 0,0
14.12.2017 12:00:00 9,7 4,9 8,3 14 7 31 17 WZW 1008,9 20 0 0,0
14.12.2017 11:00:00 8,9 5,1 6,7 11 6 29 16 ZW 1010,2 20 0 0,0
14.12.2017 10:00:00 7,3 4,6 5,7 12 7 23 12 Z 1010,2 20 6 0,2
14.12.2017 09:00:00 6,7 3,8 2,8 8 5 16 8 Z 1010,9 20 0 0,0
14.12.2017 08:00:00 5,6 3,8 2,6 6 3 23 12 Z 1011,2 20 0 0,0
14.12.2017 07:00:00 7,0 4,1 5,2 8 4 42 23 W 1010,6 20 0 0,2
14.12.2017 06:00:00 9,7 4,5 8,1 11 6 37 20 W 1009,8 20 0 0,0
14.12.2017 05:00:00 9,6 4,0 8,1 10 5 34 18 ZZW 1009,5 20 0 0,0
14.12.2017 04:00:00 9,9 4,3 7,5 12 6 31 17 WZW 1009,1 20 0 0,0
14.12.2017 03:00:00 9,3 6,6 7,6 10 5 37 20 WZW 1009,2 20 0 0,0
14.12.2017 02:00:00 10,7 6,1 9,7 11 6 34 18 Z 1008,7 20 0 0,0
14.12.2017 01:00:00 10,8 6,9 8,7 10 6 29 16 ZZW 1008,3 20 0 0,0
14.12.2017 00:00:00 10,2 7,4 8,4 15 8 36 19 ZZW 1008,1 14 0 0,0
13.12.2017 23:00:00 11,1 6,2 9,5 14 8 47 25 ZW 1007,4 18 0 0,0
13.12.2017 22:00:00 11,7 5,6 10,4 20 11 44 24 ZZW 1006,7 20 0 0,0
13.12.2017 21:00:00 11,1 5,0 8,0 17 9 37 20 Z 1006,4 20 0 0,0
13.12.2017 20:00:00 8,5 3,9 6,9 21 11 43 23 Z 1007,0 20 0 0,0
13.12.2017 19:00:00 7,5 4,1 6,5 20 11 41 22 Z 1008,0 20 0 0,0
13.12.2017 18:00:00 7,8 3,3 6,9 17 9 30 16 Z 1009,8 20 0 0,0
13.12.2017 17:00:00 7,9 3,2 7,2 15 8 27 15 Z 1011,2 20 0 0,0
13.12.2017 16:00:00 8,8 3,0 7,7 16 9 39 21 Z 1011,7 20 0 0,0
13.12.2017 15:00:00 8,8 3,0 7,4 13 7 31 17 Z 1012,2 20 0 0,0
13.12.2017 14:00:00 7,1 2,4 6,7 14 7 30 16 Z 1013,4 20 0 0,0
13.12.2017 13:00:00 6,7 1,6 5,0 17 9 36 20 Z 1014,1 20 0 0,0
13.12.2017 12:00:00 5,8 1,3 3,2 18 10 36 20 Z 1015,0 20 0 0,2
13.12.2017 11:00:00 4,6 0,5 2,8 16 9 35 19 Z 1016,1 20 0 0,2
13.12.2017 10:00:00 4,0 -0,8 2,0 15 8 30 16 Z 1016,8 20 0 0,0
13.12.2017 09:00:00 2,6 -1,8 -0,5 7 4 18 10 Z 1017,8 20 3 0,0
13.12.2017 08:00:00 0,8 -2,4 -1,9 9 5 16 9 Z 1018,9 20 0 0,0
13.12.2017 07:00:00 0,7 -3,0 -1,6 8 4 16 9 Z 1019,6 20 0 0,0
13.12.2017 06:00:00 0,7 -2,7 -1,5 8 4 18 10 Z 1019,8 20 0 0,0
13.12.2017 05:00:00 1,3 -2,5 -0,9 12 6 19 10 Z 1020,5 20 0 0,0
13.12.2017 04:00:00 1,6 -2,4 -1,1 7 4 14 8 Z 1020,8 20 0 0,0
13.12.2017 03:00:00 1,9 -1,9 -0,8 5 3 16 9 Z 1021,0 20 0 0,0
13.12.2017 02:00:00 3,2 -1,2 2,0 6 4 16 9 Z 1020,7 20 0 0,0
13.12.2017 01:00:00 3,1 -0,5 2,1 9 5 16 9 Z 1021,3 20 0 0,0
13.12.2017 00:00:00 3,3 0,0 2,4 10 5 16 9 ZZO 1021,4 20 0 0,0
12.12.2017 23:00:00 3,0 0,4 2,5 11 6 17 9 ZZO 1020,9 20 0 0,0
12.12.2017 22:00:00 3,3 -0,5 2,3 7 4 14 7 Z 1020,8 20 0 0,0
12.12.2017 21:00:00 3,1 -0,4 2,1 7 4 14 8 Z 1020,4 20 0 0,0
12.12.2017 20:00:00 3,1 0,0 -0,2 8 5 14 7 Z 1019,8 20 0 0,0
12.12.2017 19:00:00 1,1 -0,7 -2,3 0 0 3 1 N 1019,8 20 0 0,0
12.12.2017 18:00:00 1,0 -1,2 -2,2 0 0 3 2 N 1018,9 20 0 0,0
12.12.2017 17:00:00 4,1 -1,1 -1,1 2 1 8 4 Z 1017,6 20 30 0,0
12.12.2017 16:00:00 7,6 -0,6 7,1 4 2 16 9 ZZO 1016,3 20 57 0,0
12.12.2017 15:00:00 6,8 -2,4 6,9 6 3 13 7 WZW 1016,0 20 52 0,0
12.12.2017 14:00:00 7,0 0,0 4,5 3 1 11 6 W 1015,6 20 14 0,0
12.12.2017 13:00:00 5,8 0,5 4,9 3 1 12 6 NNW 1015,5 19 24 0,0
12.12.2017 12:00:00 5,0 1,5 4,9 4 2 11 6 NNW 1015,3 20 40 0,0
12.12.2017 11:00:00 5,3 2,8 3,7 8 4 9 5 ZZO 1014,5 19 18 0,0
12.12.2017 10:00:00 3,5 2,5 1,4 6 3 9 5 Z 1013,8 20 1 0,0
12.12.2017 09:00:00 3,2 2,2 2,6 6 3 9 5 Z 1013,3 20 0 0,0
12.12.2017 08:00:00 3,3 2,3 2,5 5 3 8 4 ZZO 1011,9 20 0 0,0
12.12.2017 07:00:00 3,2 2,2 1,8 4 2 7 4 Z 1010,4 20 0 0,0
12.12.2017 06:00:00 2,9 1,9 1,8 4 2 8 4 Z 1008,8 20 0 0,0
12.12.2017 05:00:00 2,9 2,2 0,4 4 2 7 4 ZZO 1007,3 20 0 0,0
12.12.2017 04:00:00 3,0 1,5 0,6 3 2 5 3 Z 1006,3 20 0 0,0
12.12.2017 03:00:00 4,0 1,5 2,4 3 2 8 4 WNW 1005,1 20 0 0,0
12.12.2017 02:00:00 4,0 0,5 2,7 0 0 12 7 N 1003,5 20 0 0,0
12.12.2017 01:00:00 4,1 0,2 2,5 4 2 11 6 WZW 1002,2 20 0 0,0
12.12.2017 00:00:00 4,4 0,0 2,9 2 1 17 9 NW 1000,6 20 0 0,0
11.12.2017 23:00:00 4,9 -0,1 4,1 9 5 25 14 WNW 998,8 20 0 0,0
11.12.2017 22:00:00 5,8 0,3 5,1 10 6 38 21 WNW 996,7 20 0 0,0
11.12.2017 21:00:00 7,0 2,9 4,9 6 3 23 12 WZW 994,3 20 0 0,0
11.12.2017 20:00:00 6,9 3,7 5,4 10 5 31 17 W 992,1 17 0 0,2
11.12.2017 19:00:00 8,4 3,0 6,8 12 7 26 14 ZZW 989,7 20 0 0,0
11.12.2017 18:00:00 9,0 2,5 7,7 13 7 30 16 ZZW 987,9 20 0 0,0
11.12.2017 17:00:00 8,6 2,8 7,6 11 6 29 16 Z 986,5 20 0 0,0
11.12.2017 16:00:00 9,2 2,7 8,4 11 6 43 23 Z 985,5 20 0 0,0
11.12.2017 15:00:00 9,2 2,5 8,6 20 11 55 30 Z 983,9 20 0 0,0
11.12.2017 14:00:00 10,4 2,2 10,2 23 12 50 27 ZZW 983,4 20 0 0,0
11.12.2017 13:00:00 10,8 3,6 10,1 21 11 42 23 Z 982,5 20 0 0,0
11.12.2017 12:00:00 10,2 2,8 9,6 18 10 44 24 Z 982,1 20 0 0,0
11.12.2017 11:00:00 10,0 2,6 7,9 20 11 42 23 Z 983,3 20 0 0,0
11.12.2017 10:00:00 9,4 3,6 7,1 21 11 49 27 Z 982,8 20 0 0,0
11.12.2017 09:00:00 9,7 4,1 7,3 21 11 70 38 ZW 982,3 20 0 0,0
11.12.2017 08:00:00 11,1 7,2 8,9 14 8 54 29 ZZW 980,1 20 0 0,8
11.12.2017 07:00:00 12,7 6,7 11,0 23 12 52 28 Z 978,5 20 0 0,0
11.12.2017 06:00:00 13,0 6,1 10,6 21 11 45 24 Z 977,1 20 0 0,0
11.12.2017 05:00:00 12,1 6,2 10,0 24 13 46 25 Z 978,1 20 0 0,0
11.12.2017 04:00:00 11,4 6,3 8,4 18 10 37 20 Z 979,5 20 0 0,0
11.12.2017 03:00:00 10,5 6,4 7,9 21 11 35 19 ZZO 980,8 20 0 0,0
11.12.2017 02:00:00 10,3 6,3 7,2 16 9 34 18 Z 982,9 20 0 0,0
11.12.2017 01:00:00 9,6 5,9 5,1 16 8 31 17 Z 984,9 20 0 0,0
11.12.2017 00:00:00 7,7 6,2 6,6 6 4 14 8 ZZO 987,3 20 0 0,6
10.12.2017 23:00:00 8,8 5,5 6,9 6 3 24 13 Z 989,1 18 0 0,2
10.12.2017 22:00:00 9,6 5,8 7,5 12 7 24 13 Z 990,3 20 0 0,2
10.12.2017 21:00:00 10,0 5,8 7,6 12 7 27 15 ZZW 991,0 20 0 0,0
10.12.2017 20:00:00 9,2 6,8 7,1 10 5 22 12 Z 992,3 20 0 0,4
10.12.2017 19:00:00 8,5 6,1 7,1 8 4 25 14 ZZO 993,2 19 0 0,4
10.12.2017 18:00:00 9,7 5,5 7,4 8 5 34 18 ZZW 993,7 20 0 0,0
10.12.2017 17:00:00 10,0 6,0 8,1 13 7 40 22 ZW 994,8 20 0 0,2
10.12.2017 16:00:00 11,1 5,0 9,6 13 7 47 26 ZZW 994,2 20 0 0,0
10.12.2017 15:00:00 12,1 6,6 9,8 19 10 52 28 ZZW 994,2 20 0 0,0
10.12.2017 14:00:00 12,0 7,7 9,7 13 7 44 24 Z 994,6 20 0 0,2
10.12.2017 13:00:00 11,9 8,4 8,6 17 9 44 24 ZW 995,4 18 0 2,6
10.12.2017 12:00:00 12,2 9,0 7,7 18 10 42 23 Z 994,2 16 0 0,4
10.12.2017 11:00:00 8,9 6,0 6,3 20 11 48 26 Z 995,2 20 0 0,4
10.12.2017 10:00:00 7,7 5,0 5,6 20 11 44 24 Z 996,5 20 0 0,2
10.12.2017 09:00:00 6,9 4,2 4,6 19 11 37 20 Z 998,2 20 0 0,2
10.12.2017 08:00:00 5,8 2,8 3,9 17 9 40 22 Z 999,4 20 0 0,0
10.12.2017 07:00:00 5,0 1,3 2,9 18 10 39 21 Z 1000,6 20 0 0,0
10.12.2017 06:00:00 4,2 -0,2 1,7 16 8 36 19 Z 1002,2 20 0 0,0
10.12.2017 05:00:00 2,9 -0,6 0,9 12 7 27 15 Z 1004,4 20 0 0,2
10.12.2017 04:00:00 2,0 -0,8 0,9 14 7 35 19 Z 1007,7 14 0 0,2
10.12.2017 03:00:00 2,6 -2,7 1,9 14 8 37 20 ZZO 1009,6 20 0 0,0
10.12.2017 02:00:00 2,5 -3,4 1,1 10 5 36 19 Z 1012,1 20 0 0,0
10.12.2017 01:00:00 1,9 -2,8 0,5 9 5 21 11 Z 1013,6 20 0 0,0
10.12.2017 00:00:00 1,8 -2,7 0,2 9 5 19 11 Z 1015,7 20 0 0,0

tt = temperatuur
td = dauwpunt
tt 5cm = temperatuur 5cm
ff = windsnelheid
fx = windstoten
dd = windrichting
ppp = luchtdruk
vv = zicht
sd = Zonneschijnduur
rr = neerslag

Weerstations in de omgeving